Location: Waco, TX
(31.5480°N, 97.1670°W)
Time: 01:46:52
(UTC-05:00)

ISS - Pass Details

Date: 12 October 2018
Orbit: 403 x 408 km, 51.6° (Epoch: 21 October)

Event Time Altitude Azimuth Distance (km) Brightness Sun altitude
Rises 11:49:40 0° 215° (SW) 2,309 0.2 45.9°
Reaches altitude 10° 11:51:46 10° 210° (SSW) 1,454 -0.6 46.1°
Maximum altitude 11:54:57 53° 132° (SE) 501 -1.2 46.4°
Drops below altitude 10° 11:58:10 10° 54° (NE) 1,465 -0.9 46.8°
Sets 12:00:17 0° 50° (NE) 2,329 -0.1 47.0°
